Location: Mentone
(34.5413°N, 85.5351°W)
Time: 05:05:57
(UTC-05:00)

Okean O Rocket - Visible Passes

Search period start: 29 April 2016 00:00
Search period end: 09 May 2016 00:00
Orbit: 624 x 645 km, 98.0° (Epoch: 28 April)

Date Brightness Start Highest point End Pass type
(mag) Time Alt. Az. Time Alt. Az. Time Alt. Az.
29 Apr 2.1 03:50:55 10° NNE 03:55:20 58° E 03:57:05 34° SSE visible
30 Apr 1.5 04:12:37 10° N 04:17:05 77° WNW 04:19:12 31° SSW visible
01 May 4.2 02:59:51 10° ENE 03:02:16 14° E 03:03:51 12° ESE visible
01 May 2.1 04:34:34 10° N 04:38:47 42° WNW 04:41:19 21° SW visible
02 May 3.5 03:20:29 10° NE 03:24:11 25° E 03:25:56 20° SE visible
02 May 2.9 04:56:49 10° NNW 05:00:25 24° WNW 05:03:25 13° WSW visible
03 May 2.5 03:41:45 10° NNE 03:46:02 44° E 03:48:03 27° SSE visible
03 May 3.5 05:19:35 10° NW 05:22:00 14° WNW 05:24:23 10° W visible
04 May 1.6 04:03:20 10° NNE 04:07:50 82° ESE 04:10:09 28° S visible
05 May 4.4 02:51:46 10° ENE 02:52:54 11° E 02:54:01 10° ESE visible
05 May 1.8 04:25:11 10° N 04:29:33 55° WNW 04:32:16 22° SW visible
06 May 3.9 03:11:35 10° NE 03:14:51 20° E 03:16:53 15° SE visible
06 May 2.6 04:47:17 10° N 04:51:12 31° WNW 04:54:21 14° SW visible
07 May 3.0 03:32:38 10° NNE 03:36:43 34° E 03:38:59 21° SSE visible
07 May 3.3 05:09:46 10° NNW 05:12:48 18° WNW 05:15:50 10° WSW visible
08 May 2.0 03:54:06 10° NNE 03:58:32 63° E 04:01:04 25° S visible
